Location: Frankfurt+(oder)
(51.7984°N, 12.2168°E)
Time: 08:29:09
(UTC+01:00)

ISS - Pass Details

Date: 11 January 2018
Orbit: 402 x 407 km, 51.6° (Epoch: 24 January)

Event Time Altitude Azimuth Distance (km) Brightness Sun altitude
Exits shadow 05:40:49 41° 137° (SE) 607 -2.7 -22.8°
Drops below altitude 10° 05:43:09 10° 117° (ESE) 1,467 0.0 -22.4°
Sets 05:45:15 0° 114° (ESE) 2,327 1.3 -22.1°
